Location: Piotrkow Trybunalski
(51.4000°N, 19.6830°E)
Time: 05:34:47
(UTC+02:00)

A-11 Canister half - Pass Details

Date: 31 January 2023
Orbit: 1526 x 1682 km, 47.3° (Epoch: 25 March)

Event Time Altitude Azimuth Distance (km) Brightness Sun altitude
Rises 11:05:55 0° 280° (W) 4,707 11.3 20.4°
Reaches altitude 10° 11:09:00 10° 277° (W) 3,737 10.9 20.5°
Maximum altitude 11:18:08 56° 203° (SSW) 1,842 10.3 20.7°
Drops below altitude 10° 11:27:32 10° 129° (SE) 3,845 11.9 21.0°
Sets 11:30:46 0° 125° (SE) 4,851 12.2 21.0°
